SCP
0 0 0 0 0 0 0 0 0 0 0 0 0 0 0 0 0 0 0 0 0 0 0 0 0 0 0 0 0 0 0 0 0 0 0 0 0 0 0 0 0 0 0
0 0 0 0 0 0 0 0 0 0 0 0 0 0 0 0 0 0 0 0 0 0 0 0 0 0 0 0 0 0 0 0 0 0 0 0 0 0 0 0 0 0 0
0 0 0 0 0 0 0 0 0 0 0 0 0 0 0 0 0 0 0 0 0 0 0 0 0 0 0 0 0 0 0 0 0 0 0 0 0 0 0 0 0 0 0
0 0 0 0 0 0 0 0 0 0 0 0 0 0 0 0 0 0 0 0 0 0 0 0 0 0 0 0 0 0 0 0 0 0 0 0 0 0 0 0 0 0 0
0 0 0 0 0 0 0 0 0 0 0 0 0 0 0 0 0 0 0 0 0 0 0 0 0 0 0 0 0 0 0 0 0 0 0 0 0 0 0 0 0 0 0
0 0 0 0 0 0 0 0 0 0 0 0 0 0 0 0 0 0 0 0 0 0 0 0 0 0 0 0 0 0 0 0 0 0 0 0 0 0 0 0 0 0 0
0 0 0 0 0 0 0 0 0 0 0 0 0 0 0 0 0 0 0 0 0 0 0 0 0 0 0 0 0 0 0 0 0 0 0 0 0 0 0 0 0 0 0
0 0 0 0 0 0 0 0 0 0 0 0 0 0 0 0 0 0 0 0 0 0 0 0 0 0 0 0 0 0 0 0 0 0 0 0 0 0 0 0 0 0 0
0 0 0 0 0 0 0 0 0 0 0 0 0 0 0 0 0 0 0 0 0 0 0 0 0 0 0 0 0 0 0 0 0 0 0 0 0 0 0 0 0 0 0
0 0 0 0 0 0 0 0 0 0 0 0 0 0 0 0 0 0 0 0 0 0 0 0 0 0 0 0 0 0 0 0 0 0 0 0 0 0 0 0 0 0 0
0 0 0 0 0 0 0 0 0 0 0 0 0 0 0 0 0 0 0 0 0 0 0 0 0 0 0 0 0 0 0 0 0 0 0 0 0 0 0 0 0 0 0
0 0 0 0 0 0 0 0 0 0 0 0 0 0 0 0 0 0 0 0 0 0 0 0 0 0 0 0 0 0 0 0 0 0 0 0 0 0 0 0 0 0 0
0 0 0 0 0 0 0 0 0 0 0 0 0 0 0 0 0 0 0 0 0 0 0 0 0 0 0 0 0 0 0 0 0 0 0 0 0 0 0 0 0 0 0
0 0 0 0 0 0 0 0 0 0 0 0 0 0 0 0 0 0 0 0 0 0 0 0 0 0 0 0 0 0 0 0 0 0 0 0 0 0 0 0 0 0 0
0 0 0 0 0 0 0 0 0 0 0 0 0 0 0 0 0 0 0 0 0 0 0 0 0 0 0 0 0 0 0 0 0 0 0 0 0 0 0 0 0 0 0
0 0 0 0 0 0 0 0 0 0 0 0 0 0 0 0 0 0 0 0 0 0 0 0 0 0 0 0 0 0 0 0 0 0 0 0 0 0 0 0 0 0 0
0 0 0 0 0 0 0 0 0 0 0 0 0 0 0 0 0 0 0 0 0 0 0 0 0 0 0 0 0 0 0 0 0 0 0 0 0 0 0 0 0 0 0
0 0 0 0 0 0 0 0 0 0 0 0 0 0 0 0 0 0 0 0 0 0 0 0 0 0 0 0 0 0 0 0 0 0 0 0 0 0 0 0 0 0 0
0 0 0 0 0 0 0 0 0 0 0 0 0 0 0 0 0 0 0 0 0 0 0 0 0 0 0 0 0 0 0 0 0 0 0 0 0 0 0 0 0 0 0
0 0 0 0 0 0 0 0 0 0 0 0 0 0 0 0 0 0 0 0 0 0 0 0 0 0 0 0 0 0 0 0 0 0 0 0 0 0 0 0 0 0 0
0 0 0 0 0 0 0 0 0 0 0 0 0 0 0 0 0 0 0 0 0 0 0 0 0 0 0 0 0 0 0 0 0 0 0 0 0 0 0 0 0 0 0
0 0 0 0 0 0 0 0 0 0 0 0 0 0 0 0 0 0 0 0 0 0 0 0 0 0 0 0 0 0 0 0 0 0 0 0 0 0 0 0 0 0 0
0 0 0 0 0 0 0 0 0 0 0 0 0 0 0 0 0 0 0 0 0 0 0 0 0 0 0 0 0 0 0 0 0 0 0 0 0 0 0 0 0 0 0
0 0 0 0 0 0 0 0 0 0 0 0 0 0 0 0 0 0 0 0 0 0 0 0 0 0 0 0 0 0 0 0 0 0 0 0 0 0 0 0 0 0 0
0 0 0 0 0 0 0 0 0 0 0 0 0 0 0 0 0 0 0 0 0 0 0 0 0 0 0 0 0 0 0 0 0 0 0 0 0 0 0 0 0 0 0
0 0 0 0 0 0 0 0 0 0 0 0 0 0 0 0 0 0 0 0 0 0 0 0 0 0 0 0 0 0 0 0 0 0 0 0 0 0 0 0 0 0 0
Wind_Speed
2 4 5 5 7 8 9 10 10 11 11 11 11 11 11 11 11 11 11 11 11 12 12 13 13 13 13 13 13 14 13 13 13 13 12 12 12 13 13 13 11 8 14
2 3 4 5 7 8 8 9 10 10 11 10 10 11 11 10 10 10 11 11 11 11 12 12 12 13 12 12 12 13 13 13 12 12 11 9 10 11 12 12 11 8 13
1 2 2 5 7 8 9 9 10 10 10 10 10 11 10 10 10 10 10 11 11 11 11 12 12 12 12 11 11 12 12 12 11 11 10 5 7 11 11 12 12 12 12
2 2 3 6 7 8 8 9 10 9 10 10 10 10 11 10 10 10 11 11 11 11 11 10 10 10 10 10 10 11 11 11 10 9 5 4 4 10 11 11 11 12 12
3 3 3 7 8 8 8 8 9 9 9 10 10 10 10 10 9 10 10 11 11 10 10 10 10 9 9 10 10 10 10 10 9 7 4 4 3 8 10 11 11 11 11
4 4 4 8 8 9 8 8 9 9 9 9 9 10 9 9 10 10 10 10 11 10 9 9 9 9 9 9 9 9 9 9 8 4 4 3 3 7 9 10 10 10 10
4 4 4 8 8 8 9 9 9 9 9 9 9 9 9 9 9 9 10 10 10 9 9 9 8 8 8 8 8 9 9 8 5 4 3 3 3 8 9 9 9 9 9
5 4 5 8 9 8 8 9 9 8 9 9 9 9 9 9 9 9 9 9 9 8 8 8 8 7 7 8 8 8 8 7 5 4 3 2 4 7 8 8 8 8 8
5 5 5 5 6 7 8 9 9 9 9 9 9 9 9 9 9 9 9 9 8 8 8 7 7 7 7 7 8 8 8 7 4 2 2 1 4 6 6 7 7 7 7
5 5 5 5 5 4 4 8 9 9 9 9 9 10 9 8 8 8 8 8 8 8 8 7 7 7 7 7 8 8 8 6 3 2 1 1 3 5 5 6 6 6 7
5 4 4 4 4 4 4 5 6 8 8 8 7 9 8 4 3 4 6 8 8 7 7 7 7 7 7 6 7 7 6 3 2 2 1 2 3 4 4 4 5 5 5
3 3 3 3 3 3 3 3 2 3 3 4 3 4 3 3 3 5 6 7 7 7 6 6 6 6 5 3 4 5 2 2 2 1 1 2 2 2 3 4 4 4 4
1 2 2 3 3 2 2 2 1 1 2 2 3 3 3 2 2 3 2 3 3 4 3 3 3 3 3 2 2 2 2 2 1 1 1 2 2 1 2 3 3 3 3
1 1 2 2 2 2 2 1 1 1 1 2 2 2 2 2 2 2 2 2 2 2 2 2 2 2 3 2 2 2 2 1 1 1 1 1 1 1 1 2 3 3 3
1 0 1 1 2 1 1 1 2 1 1 1 1 1 2 1 1 1 1 1 2 2 2 2 1 2 2 2 1 1 1 0 0 1 1 1 1 0 1 2 2 3 4
1 0 0 1 1 1 1 1 1 1 1 1 1 2 2 1 1 1 1 1 1 1 1 1 1 1 1 1 1 1 1 1 0 1 1 1 1 1 2 2 3 3 3
3 1 1 1 1 1 1 1 1 1 1 1 1 2 2 2 1 1 1 1 1 1 1 1 1 1 1 2 2 1 1 1 1 1 1 1 2 2 2 3 2 3 3
3 2 1 1 1 0 0 1 1 1 1 1 1 1 2 2 2 1 1 1 1 1 1 1 1 1 1 1 2 2 1 2 2 2 1 1 1 1 2 3 3 3 3
4 3 2 1 1 1 1 1 1 1 1 0 1 1 1 1 2 1 0 1 1 1 1 1 1 1 1 1 2 2 1 2 2 1 1 1 1 1 1 2 2 2 3
3 3 2 2 2 1 1 1 1 1 1 1 0 0 1 1 1 1 1 1 1 0 1 1 1 1 1 1 2 2 2 2 2 1 1 1 1 1 1 1 1 1 2
3 3 2 3 2 1 1 1 1 1 0 1 1 0 1 1 1 1 1 2 1 0 1 1 1 1 1 1 1 2 2 2 1 1 1 1 1 1 1 1 1 1 1
4 3 3 3 3 3 2 2 2 2 1 1 1 1 1 1 2 2 1 1 1 1 1 1 1 0 1 1 1 1 1 2 2 2 1 1 1 0 1 1 1 1 1
5 4 3 3 3 3 3 1 1 1 0 0 1 1 1 1 1 1 1 1 2 1 1 1 1 1 1 1 1 1 1 2 3 2 1 1 1 1 1 1 2 2 2
5 4 3 3 3 3 3 3 3 2 2 2 2 1 1 1 1 1 1 1 2 1 1 2 1 1 1 1 2 1 1 1 1 2 2 2 1 2 2 2 2 3 3
5 4 3 3 3 4 4 4 4 3 2 2 2 1 1 1 1 1 1 1 1 1 2 2 2 1 1 1 2 2 2 2 2 2 3 3 3 2 2 2 2 3 3
4 4 3 4 4 4 4 4 5 4 3 3 3 2 2 1 1 1 2 1 1 2 2 2 2 2 2 2 2 2 2 2 2 2 3 4 4 3 3 2 2 3 2
Wind_Direction
311 312 331 29 48 54 53 56 57 55 53 55 59 64 68 70 73 72 70 70 71 71 72 72 71 73 74 75 76 77 77 76 74 73 73 75 79 82 83 83 82 81 86
264 298 350 42 54 56 58 59 58 56 53 54 57 61 66 71 73 72 69 69 71 71 73 73 71 71 73 76 76 77 78 77 73 71 69 69 75 80 84 85 86 88 87
62 338 348 50 60 59 59 61 60 58 56 56 56 58 60 64 69 71 69 67 69 71 72 73 71 70 70 73 77 79 79 77 74 71 67 59 75 83 86 89 90 89 89
67 21 359 56 64 63 64 63 61 61 59 57 57 57 58 60 64 67 68 65 65 67 69 72 73 72 70 71 74 77 79 77 72 71 62 52 66 84 86 89 92 92 91
57 27 12 55 61 63 66 66 64 61 60 59 57 58 58 58 61 63 67 66 63 63 66 68 68 72 71 71 73 74 75 72 67 61 57 55 58 85 86 88 90 93 94
56 30 27 56 60 59 60 67 65 62 61 60 58 59 58 58 59 61 64 68 66 63 64 67 64 65 67 69 71 72 69 69 67 52 54 60 61 86 88 90 91 94 96
62 40 37 52 57 58 57 57 63 61 61 59 59 59 58 57 58 58 62 66 68 66 65 65 65 66 61 63 67 69 66 66 65 55 51 63 78 89 88 90 92 94 99
72 51 49 50 51 53 55 54 56 60 59 59 57 57 58 56 57 58 60 64 66 66 65 66 63 63 64 60 61 62 59 64 67 64 51 58 92 94 93 90 90 95 96
68 56 43 41 43 45 49 52 50 52 57 55 54 54 56 53 54 57 57 59 62 61 62 62 62 60 63 60 58 58 57 60 57 57 59 59 98 101 98 97 93 93 97
61 54 43 37 34 27 36 50 50 48 51 54 51 49 50 51 51 53 51 51 56 60 57 58 60 59 57 56 57 58 56 57 52 43 32 77 104 107 102 101 99 96 96
52 44 40 39 34 25 32 48 51 51 46 50 53 51 49 42 45 46 39 46 52 56 53 53 52 54 47 47 49 54 53 38 40 38 16 68 102 115 112 111 112 103 103
43 38 38 32 32 29 38 42 51 55 50 47 50 53 45 37 38 48 45 45 46 50 48 47 46 48 38 28 37 49 42 35 32 28 25 49 89 115 122 122 123 118 116
96 39 29 28 23 38 37 43 40 47 50 47 46 42 43 41 42 46 46 44 39 40 34 31 33 23 17 14 30 41 40 43 18 357 12 32 45 99 119 130 139 137 137
90 58 11 34 27 31 46 46 46 51 49 43 37 43 55 46 36 39 40 24 27 20 11 14 12 6 3 5 36 49 43 39 1 346 328 357 11 71 127 139 149 159 154
112 81 8 18 46 28 57 51 53 49 60 50 44 44 51 60 44 37 38 23 15 9 3 355 353 353 353 354 23 39 21 21 296 319 319 319 313 275 160 182 168 174 178
158 197 225 12 73 55 67 72 65 35 46 59 48 27 38 47 50 31 29 21 5 347 342 336 329 336 329 343 360 359 326 297 286 284 301 290 283 270 236 217 204 195 191
179 190 212 172 64 85 106 101 75 36 37 46 36 30 33 41 44 44 11 0 336 322 333 342 346 357 358 357 342 323 323 302 284 281 282 285 276 274 252 229 217 212 207
177 185 220 180 82 116 95 134 115 76 40 42 43 29 38 38 34 42 18 333 328 333 350 343 1 8 354 346 329 301 294 293 283 271 278 293 292 279 262 248 246 237 231
185 188 200 190 169 190 156 140 119 103 46 5 47 23 29 33 31 28 325 305 323 341 350 348 2 347 332 335 310 299 283 264 262 260 273 280 283 283 286 268 264 264 255
188 187 188 186 194 203 164 119 94 72 41 358 6 352 20 10 22 23 335 318 340 0 344 3 356 345 305 299 306 314 289 264 248 228 244 279 291 286 305 314 270 287 286
185 190 195 188 205 200 173 180 173 208 269 321 305 360 5 3 4 12 1 334 337 329 319 331 355 345 331 340 357 336 323 292 253 246 253 260 280 287 295 297 294 295 290
194 201 205 203 216 216 192 198 189 194 203 234 272 333 360 16 4 4 7 329 317 316 335 331 356 334 328 0 28 353 330 323 319 291 246 221 256 323 288 274 278 279 287
200 204 212 212 227 215 185 176 164 130 44 318 307 312 333 347 351 339 328 315 315 287 262 296 295 318 293 307 324 158 198 255 313 301 289 252 244 258 265 283 264 278 274
209 203 209 214 229 209 180 178 177 184 212 243 241 248 291 306 321 329 315 314 300 296 251 261 296 291 242 273 293 281 256 235 243 292 305 297 269 252 246 273 270 266 266
204 200 208 215 223 204 192 189 186 195 216 235 230 243 277 292 284 297 292 283 289 286 260 253 277 266 243 253 271 288 286 277 244 245 271 289 299 261 247 258 258 260 259
199 196 203 212 223 203 200 198 192 197 206 226 237 232 245 260 260 271 286 285 288 284 277 254 256 262 257 254 263 273 276 256 244 254 257 270 282 285 275 253 248 251 252